Accueil
METAR-TAF:

METAR-TAF

Aéroports :

Kekaha, Hawaii, États-Unis

Pacific Missile Range Facility

latitude: 22-02-11N, longitude: 159-47-11W, altitude: 4 m

Observation

Le bulletin a été fait il y a 49 minutes, à 12:56 UTC
Vent 3 kt de est
Température 26°C
Humidité 84%
Pression 1015 hPa
Visibilité: 16.1 km
Quelques nuages à une hauteur de 1600 ft

METAR: PHBK 211256Z AUTO 08003KT 10SM FEW016 26/23 A2997 RMK AO2 SLP151 T02560228 $

Heure: 03:45 (13:45 UTC)


TAF: absent

Observations et prévisions météorologiques de plus de 4000 aéroports (messages METAR et TAF).

Les stations disponibles sont représentées par des disques jaunes et rouges sur la carte.

Passer la souris dessus pour voir le nom de la station.

Cliquer dessus pour voir les observations et prévisions météorologiques.

Pour changer de carte: cliquez sur les boutons verts avec une croix noire pour zoomer, sur le bouton vert avec un tiret pour effectuer un zoom arrière, ou sur les flèches vertes pour les cartes adjacentes.


METAR-TAF: